Weather History for LIVP - February, 2014

Change the Weather History Date:

Monday, February 3, 2014

  Actual Average Record
Temperature  
Mean Temperature 30 °F -  
Max Temperature 33 °F 28 °F 44 °F (2004)
Min Temperature 27 °F 19 °F 0 °F (2012)
Degree Days  
Heating Degree Days 35    
Moisture  
Dew Point 28 °F    
Average Humidity 88    
Maximum Humidity 100    
Minimum Humidity 76    
Precipitation  
Precipitation 0.08 in 0.03 in - ()
Sea Level Pressure  
Sea Level Pressure 29.81 in    
Wind  
Wind Speed 7 mph ()    
Max Wind Speed 13 mph    
Max Gust Speed -    
Visibility 0.0 miles    
Events Fog , Snow    
Averages and records for this station are not official NWS values.
T = Trace of Precipitation, MM = Missing Value Source: Averaged Metar Reports

Daily Weather History Graph

Daily Weather History Graph

Search for Another Location

Airport or City:

Trip Planner

Search our weather history database for the weather conditions in past years. The results will help you decide how hot, cold, wet, or windy it might be!

Date:

Astronomy

Feb. 03, 2014 Rise Set
Actual Time 7:36 AM CET 5:23 PM CET
Civil Twilight 7:04 AM CET 5:55 PM CET
Nautical Twilight 6:28 AM CET 6:31 PM CET
Astronomical Twilight 5:53 AM CET 7:06 PM CET
Moon 9:12 AM CET (2/3) 10:13 PM CET (2/3)
Length of Visible Light 10h 50m
Length of Day
9h 47m
Waxing Crescent, 17% of the Moon is Illuminated
Feb 3
Waxing Crescent
Feb 6
First Quarter
Feb 15
Full
Feb 22
Last Quarter
Mar 1
New

Hourly Weather History & Observations

Time (CET) Temp. Windchill Dew Point Humidity Pressure Visibility Wind Dir Wind Speed Gust Speed Precip Events Conditions
12:00 AM 28 °F - 27 °F 95%  in 0 mi North 6.9 mph - - Snow Light Snow
12:55 AM 28.4 °F 21.2 °F 26.6 °F 93% 29.77 in - North 6.9 mph - N/A Fog Light Freezing Fog
1:00 AM 28 °F - 28 °F 97%  in 0 mi North 6.9 mph - - Snow Light Snow
1:55 AM 28.4 °F 22.2 °F 28.4 °F 100% 29.77 in - North 5.8 mph - N/A Fog Light Freezing Fog
2:00 AM 28 °F - 28 °F 99%  in 0 mi North 5.8 mph - - Snow Light Snow
2:55 AM 28.4 °F 22.2 °F 28.4 °F 100% 29.77 in - NNE 5.8 mph - N/A Fog Light Freezing Fog
3:00 AM 28 °F - 28 °F 99%  in 0 mi NNE 5.8 mph - - Snow Light Snow
3:55 AM 28.4 °F 20.4 °F 28.4 °F 100% 29.77 in - NNE 8.1 mph - N/A Fog Light Freezing Fog
4:00 AM 29 °F - 28 °F 95%  in 0 mi NNE 8.1 mph - - Snow Light Snow
4:55 AM 28.4 °F 21.2 °F 28.4 °F 100% 29.77 in 0.0 mi NNE 6.9 mph - N/A Fog , Snow Light Snow
5:00 AM 29 °F - 28 °F 93%  in 0 mi NNE 6.9 mph - - Snow Light Snow
5:55 AM 30.2 °F 22.6 °F 26.6 °F 86% 29.77 in 0.3 mi NNE 8.1 mph - N/A Fog , Snow Light Snow
6:00 AM 29 °F - 28 °F 92%  in 0 mi NNE 8.1 mph - - Snow Light Snow
6:55 AM 28.4 °F 21.2 °F 26.6 °F 93% 29.80 in - NNE 6.9 mph - N/A Fog Light Freezing Fog
7:00 AM 29 °F - 27 °F 88%  in 0 mi NNE 6.9 mph - - Snow Light Snow
7:55 AM 30.2 °F 24.3 °F 28.4 °F 93% 29.80 in 0.1 mi NNE 5.8 mph - N/A Fog , Snow Light Snow
8:00 AM 31 °F - 28 °F 84%  in 0 mi NNE 5.8 mph - - Snow Light Snow
8:55 AM 30.2 °F 21.9 °F 26.6 °F 86% 29.83 in 0.0 mi NE 9.2 mph - N/A Fog , Snow Light Snow
9:00 AM 30 °F - 27 °F 85%  in 0 mi NE 9.2 mph - - Snow Light Snow
9:55 AM 30.2 °F 22.6 °F 28.4 °F 93% 29.83 in 0.0 mi NE 8.1 mph - N/A Fog , Snow Light Snow
10:00 AM 31 °F - 28 °F 84%  in 0 mi NE 8.1 mph - - Snow Light Snow
10:55 AM 33.8 °F 27.7 °F 30.2 °F 87% 29.83 in 0.0 mi SSE 6.9 mph - N/A Fog , Snow Light Snow
11:00 AM 33 °F - 30 °F 83%  in 0 mi SSE 6.9 mph - - Snow Light Snow
11:55 AM 32.0 °F 25.6 °F 28.4 °F 87% 29.83 in 0.0 mi SSE 6.9 mph - N/A Fog , Snow Light Snow
12:00 PM 32 °F - 28 °F 81%  in 0 mi SSE 6.9 mph - - Snow Light Snow
12:55 PM 32.0 °F 25.6 °F 28.4 °F 87% 29.83 in 0.0 mi SSE 6.9 mph - N/A Fog , Snow Light Snow
1:00 PM 32 °F - 28 °F 81%  in 0 mi SSE 6.9 mph - - Snow Light Snow
1:55 PM 32.0 °F 24.2 °F 28.4 °F 87% 29.83 in 0.0 mi SSE 9.2 mph - N/A Fog , Snow Light Snow
2:00 PM 32 °F - 29 °F 83%  in 0 mi SSE 9.2 mph - - Snow Light Snow
2:55 PM 32.0 °F 24.2 °F 28.4 °F 87% 29.83 in 0.0 mi ESE 9.2 mph - N/A Fog , Snow Light Snow
3:00 PM 32 °F - 28 °F 81%  in 0 mi ESE 9.2 mph - - Snow Light Snow
3:55 PM 32.0 °F 24.2 °F 28.4 °F 87% 29.80 in 0.0 mi ESE 9.2 mph - N/A Fog , Snow Light Snow
4:00 PM 32 °F - 28 °F 80%  in 0 mi ESE 9.2 mph - - Snow Light Snow
4:55 PM 32.0 °F 23.6 °F 28.4 °F 87% 29.80 in 0.0 mi ESE 10.4 mph - N/A Fog , Snow Light Snow
5:00 PM 32 °F - 28 °F 80%  in 0 mi ESE 10.4 mph - - Snow Light Snow
5:55 PM 32.0 °F 24.2 °F 28.4 °F 87% 29.80 in 0.0 mi SSE 9.2 mph - N/A Fog , Snow Light Snow
6:00 PM 32 °F - 28 °F 80%  in 0 mi SSE 9.2 mph - - Snow Light Snow
6:55 PM 32.0 °F 24.2 °F 28.4 °F 87% 29.83 in 0.0 mi South 9.2 mph - N/A Fog , Snow Light Snow
7:00 PM 32 °F - 28 °F 80%  in 0 mi South 9.2 mph - - Snow Light Snow
7:55 PM 32.0 °F 23.6 °F 26.6 °F 80% 29.83 in - South 10.4 mph - N/A Fog Light Freezing Fog
8:00 PM 32 °F - 27 °F 76%  in 0 mi South 10.4 mph - - Snow Light Snow
8:55 PM 32.0 °F 24.2 °F 28.4 °F 87% 29.83 in - South 9.2 mph - N/A Fog Light Freezing Fog
9:00 PM 32 °F - 28 °F 80%  in 0 mi South 9.2 mph - - Snow Light Snow
9:55 PM 32.0 °F 23.6 °F 28.4 °F 87% 29.83 in - South 10.4 mph - N/A Fog Light Freezing Fog
10:00 PM 32 °F - 29 °F 82%  in 0 mi South 10.4 mph - - Snow Light Snow
10:55 PM 32.0 °F 23.0 °F 28.4 °F 87% 29.83 in - South 11.5 mph - N/A Fog Light Freezing Fog
11:00 PM 32 °F - 28 °F 80%  in 0 mi South 11.5 mph - - Snow Light Snow
11:55 PM 32.0 °F 22.5 °F 28.4 °F 87% 29.83 in - South 12.7 mph - N/A Fog Light Freezing Fog